[[{"header":{"parameterUnit":"m.s-1","parameterCategory":1,"la1":30.2991,"la2":30.254,"lo1":-89.0895,"lo2":-89.0444,"dy":0.0017,"dx":0.0017,"nx":28,"ny":28,"refTime":"2025-07-30T21:00:00:Z","depth":0,"parameterNumber":2,"parameterNumberName":"U-component_of_WINDS"},"data":[0,0,0,0,0,0,0,0,0,0,0,0,0,0,0,0,0,0,0,0,0,0,0,0,0,0,0,0,0,0,0,0,0,0,0,0,0,0,0,0,0,0,0,0,0,0,0,0,0,0,0,0,0,0,0,0,0,0,3.5036,3.5038,0,3.5165,3.5167,3.5168,3.5136,3.5134,3.5131,3.5129,3.5262,3.5268,3.5274,0,0,0,0,0,0,0,0,0,0,0,0,0,3.4762,3.4767,3.5036,3.5038,3.5039,3.5165,3.5167,3.5169,3.5136,3.5133,3.513,3.5127,3.526,3.5267,3.5275,0,0,0,0,0,0,0,0,0,0,0,0,0,3.4885,3.4769,3.5036,3.5038,3.504,3.5165,3.5167,3.5169,3.5137,3.5133,3.513,3.5126,3.5258,3.5267,3.5276,3.5406,0,0,3.5303,3.5307,0,0,0,0,0,0,0,0,3.4878,3.4895,3.5036,3.5038,3.504,3.5131,3.5119,3.5249,3.5138,3.51,3.5129,3.5124,3.5222,3.5233,3.5266,3.5413,3.5418,3.5304,3.5309,3.5313,3.5315,0,0,0,0,0,0,0,3.487,3.489,3.5087,3.5038,3.5041,3.5033,3.5047,3.5144,3.5181,3.5103,3.5101,3.5117,3.5222,3.5258,3.5269,3.542,3.5303,3.5311,3.5317,3.532,3.5681,3.5685,0,0,0,0,0,0,3.486,3.4883,3.5083,3.5091,3.4948,3.5041,3.5056,3.5106,3.518,3.5187,3.512,3.5115,3.5244,3.5259,3.5274,3.5431,3.5313,3.5321,3.5326,3.5676,3.5682,3.5686,0,0,0,0,0,0,3.4854,3.4878,3.5078,3.4987,3.5011,3.505,3.5106,3.511,3.5145,3.5192,3.5199,3.5149,3.5242,3.5261,3.5373,3.5436,3.5325,3.5333,3.5671,3.5678,3.5684,3.5748,0,0,0,0,0,0,3.4846,3.4876,3.4926,3.4988,3.5016,3.5176,3.511,3.5115,3.5161,3.5155,3.5222,3.5229,3.524,3.536,3.5382,3.5446,3.534,3.5666,3.5674,3.5682,3.5741,3.5756,3.5769,0,0,0,0,0,3.4836,3.4939,3.4929,3.4953,3.508,3.5179,3.5196,3.5206,3.5166,3.5217,3.5246,3.5227,3.5425,3.5372,3.5397,3.5464,3.5662,3.5672,3.5681,3.5735,3.5753,3.5769,0,0,0,0,0,0,3.4884,3.4947,3.4936,3.5062,3.5116,3.5174,3.5238,3.5226,3.5292,3.5284,3.5295,3.531,3.5425,3.5456,3.5395,3.5594,3.5538,3.5553,3.557,3.5588,3.5602,3.5592,3.5347,0,0,0,0,0,3.4909,3.4985,3.5036,3.5142,3.5169,3.5199,3.5243,3.5246,3.5302,3.5325,3.5363,3.5419,3.5493,3.5542,3.5614,3.5745,3.5759,3.5803,3.5818,3.5829,3.5842,3.5913,3.5934,3.5718,3.5718,3.5717,0,0,3.4962,3.5006,3.5053,3.5153,3.5194,3.5273,3.5218,3.5303,3.5361,3.5338,3.5446,3.5476,3.5539,3.5661,3.5717,3.569,3.5905,3.5841,3.585,3.5857,3.5925,3.5946,3.5964,3.5724,3.5723,3.5722,0,0,3.5098,3.5139,3.5231,3.5274,3.5338,3.5357,3.5379,3.5439,3.5458,3.5567,3.5551,3.562,3.5749,3.5794,3.5834,3.5987,3.5971,3.601,3.6084,3.6154,3.6171,3.6186,3.624,3.626,3.6022,3.6023,3.6023,0,3.5156,3.5272,3.5281,3.5367,3.5412,3.5393,3.5487,3.5529,3.5613,3.5644,3.5613,3.5773,3.5814,3.5947,3.5984,3.6017,3.6043,3.6002,3.6167,3.6183,3.6197,3.6249,3.627,3.6027,3.6026,3.6026,3.6025,0,3.534,3.5421,3.5488,3.5569,3.5621,3.5711,3.5734,3.5785,3.5784,3.5807,3.5918,3.5966,3.6047,3.6078,3.6078,3.6211,3.6193,3.6164,3.6108,3.6222,3.6271,3.6291,3.6033,3.6031,3.603,3.6029,0,0,3.551,3.5594,3.5619,3.5655,3.5724,3.5787,3.5876,3.5954,3.5998,3.6057,3.6132,3.6241,3.6215,3.626,3.6265,3.6327,3.6444,3.6291,3.6293,3.6318,3.6594,3.6615,3.6638,3.6434,3.6438,3.6441,3.6588,0,3.5652,3.5809,3.5819,3.596,3.6035,3.6019,3.6096,3.6147,3.617,3.6238,3.6263,3.634,3.63,3.6328,3.6387,3.6417,3.65,3.6407,3.6505,3.6508,3.649,3.6663,3.6686,3.6822,3.6608,3.6611,3.6613,0,3.5839,3.5903,3.6051,3.6109,3.6141,3.621,3.6283,3.6347,3.6405,3.6417,3.6468,3.6464,3.6555,3.6496,3.6622,3.6559,3.6599,3.662,3.6625,3.6635,3.6568,3.6678,3.6866,3.6887,3.6644,3.6641,3.6639,0,3.5948,3.6071,3.6176,3.6207,3.6277,3.6327,3.6358,3.6411,3.6458,3.6521,3.6552,3.6625,3.6666,3.6723,3.6739,3.6694,3.6866,3.6807,3.6879,3.6879,3.6916,3.6914,3.7114,3.6942,3.6942,3.6941,3.6941,0,3.6106,3.6198,3.6226,3.629,3.6393,3.6403,3.6504,3.6533,3.658,3.665,3.6641,3.6707,3.6724,3.6794,3.6807,3.691,3.6928,3.6941,3.6944,3.6942,3.6941,3.6969,3.696,3.6947,3.6946,3.6945,3.6944,0,3.6246,3.6268,3.6381,3.6438,3.6454,3.6527,3.6576,3.6638,3.6659,3.6748,3.677,3.6804,3.6885,3.6907,3.7004,3.7013,3.7134,3.7128,3.7115,3.7115,3.7185,3.7178,3.7411,3.7442,3.725,3.7252,3.7253,0,3.6345,3.6415,3.6479,3.6525,3.6558,3.6632,3.6679,3.6693,3.6742,3.6812,3.6866,3.6946,3.701,3.7141,3.7175,3.7249,3.7244,3.7321,3.7256,3.7252,3.7246,3.7241,3.7249,3.7333,3.7335,3.7337,3.7338,0,3.6519,3.6526,3.6594,3.6666,3.6722,3.678,3.6835,3.6873,3.6894,3.695,3.7033,3.7083,3.7182,3.7261,3.7336,3.7369,3.7358,3.7358,3.7379,3.7378,3.7368,3.7375,3.7149,3.7353,3.7352,3.7351,3.735,3.7349,3.6642,3.6703,3.6757,3.6833,3.6876,3.6927,3.6988,3.7017,3.7086,3.7167,3.7171,3.726,3.7316,3.7415,3.7452,3.7523,3.75,3.753,3.7537,3.7544,3.7551,3.7356,3.7536,3.7536,3.7536,3.7535,3.7535,0,3.6815,3.6849,3.6919,3.6996,3.7055,3.7038,3.7098,3.715,3.7228,3.728,3.7344,3.7439,3.7515,3.7555,3.7631,3.768,3.7677,3.77,3.7697,3.7705,3.7566,3.7541,3.7701,3.7701,3.7701,3.7701,3.7701,3.7701,3.6912,3.7015,3.7029,3.7153,3.7186,3.7273,3.7309,3.7357,3.7398,3.7504,3.7568,3.7593,3.764,3.772,3.7789,3.7799,3.7828,3.7854,3.7861,3.7731,3.7714,3.7698,3.7674,3.786,3.786,3.7993,3.7994,3.7995]},{"header":{"parameterUnit":"m.s-1","parameterCategory":1,"la1":30.2991,"la2":30.254,"lo1":-89.0895,"lo2":-89.0444,"dy":0.0017,"dx":0.0017,"nx":28,"ny":28,"refTime":"2025-07-30T21:00:00:Z","depth":0,"parameterNumber":3,"parameterNumberName":"V-component_of_WINDS"},"data":[0,0,0,0,0,0,0,0,0,0,0,0,0,0,0,0,0,0,0,0,0,0,0,0,0,0,0,0,0,0,0,0,0,0,0,0,0,0,0,0,0,0,0,0,0,0,0,0,0,0,0,0,0,0,0,0,0,0,0.2135,0.2135,0,0.2112,0.2112,0.2112,0.2077,0.2077,0.2076,0.2076,0.2054,0.2054,0.2054,0,0,0,0,0,0,0,0,0,0,0,0,0,0.215,0.215,0.2135,0.2135,0.2135,0.2112,0.2112,0.2112,0.2077,0.2077,0.2076,0.2075,0.2054,0.2054,0.2054,0,0,0,0,0,0,0,0,0,0,0,0,0,0.2137,0.215,0.2135,0.2115,0.2113,0.2112,0.2112,0.2112,0.2078,0.2077,0.2076,0.2075,0.2054,0.2054,0.2054,0.2072,0,0,0.2054,0.2054,0,0,0,0,0,0,0,0,0.2138,0.2137,0.2118,0.2116,0.2114,0.2097,0.2109,0.2098,0.2078,0.2091,0.2076,0.2074,0.2069,0.2068,0.2065,0.2071,0.207,0.2054,0.2054,0.2054,0.2054,0,0,0,0,0,0,0,0.2139,0.2138,0.2126,0.2118,0.2115,0.2107,0.2104,0.2107,0.2086,0.209,0.2087,0.2085,0.2068,0.2066,0.2065,0.207,0.2054,0.2054,0.2054,0.2054,0.2089,0.209,0,0,0,0,0,0,0.2143,0.2139,0.2127,0.2125,0.2124,0.2108,0.2104,0.2103,0.2085,0.2082,0.2086,0.2083,0.2066,0.2065,0.2064,0.2084,0.2054,0.2054,0.2054,0.2088,0.2089,0.2091,0,0,0,0,0,0,0.2143,0.2142,0.2128,0.2131,0.2129,0.2108,0.2107,0.2103,0.2101,0.2082,0.2078,0.2087,0.2065,0.2064,0.207,0.2083,0.2054,0.2054,0.2087,0.2089,0.209,0.2125,0,0,0,0,0,0,0.2144,0.2143,0.2149,0.2132,0.2129,0.2134,0.2108,0.2103,0.2101,0.2098,0.2083,0.208,0.2064,0.207,0.207,0.2083,0.2054,0.2086,0.2088,0.209,0.2123,0.2128,0.2132,0,0,0,0,0,0.2145,0.216,0.215,0.2148,0.2137,0.2135,0.2134,0.2115,0.2102,0.2109,0.2096,0.208,0.2081,0.2071,0.2071,0.2083,0.2085,0.2087,0.2089,0.2121,0.2127,0.2132,0,0,0,0,0,0,0.2181,0.2158,0.2146,0.2156,0.2148,0.2129,0.2137,0.2122,0.2118,0.2115,0.2093,0.209,0.2099,0.2092,0.2081,0.21,0.2081,0.2083,0.2105,0.211,0.2115,0.2117,0.2054,0,0,0,0,0,0.219,0.219,0.217,0.2182,0.2178,0.2158,0.2157,0.2144,0.2134,0.2131,0.2119,0.2111,0.211,0.2109,0.2107,0.2121,0.2118,0.2129,0.2134,0.2138,0.214,0.2147,0.2153,0.2098,0.2097,0.2097,0,0,0.2209,0.2197,0.2198,0.2189,0.218,0.2182,0.2156,0.2158,0.2159,0.2131,0.2137,0.2128,0.2117,0.2128,0.2132,0.2122,0.2154,0.214,0.2144,0.2144,0.215,0.2155,0.216,0.2099,0.2099,0.2098,0,0,0.2245,0.2235,0.2244,0.2236,0.2223,0.221,0.2212,0.2195,0.2188,0.2193,0.2172,0.2173,0.2171,0.2164,0.2161,0.2192,0.2178,0.2192,0.2216,0.2224,0.2228,0.2232,0.2244,0.2248,0.2195,0.2195,0.2195,0,0.2271,0.2271,0.225,0.2254,0.225,0.2224,0.2232,0.2226,0.2214,0.2212,0.22,0.2197,0.2188,0.2197,0.2204,0.2202,0.2204,0.2195,0.2229,0.2232,0.2236,0.2247,0.2252,0.2197,0.2196,0.2196,0.2196,0,0.2304,0.2304,0.2313,0.2301,0.2298,0.2304,0.2284,0.2284,0.227,0.2258,0.2263,0.2251,0.2246,0.2247,0.2234,0.2253,0.2248,0.2233,0.2213,0.2243,0.2254,0.2258,0.2199,0.2199,0.2198,0.2198,0,0,0.2364,0.2339,0.2342,0.2336,0.232,0.2321,0.2325,0.2319,0.232,0.2312,0.2316,0.2314,0.23,0.2296,0.2282,0.2288,0.2315,0.2272,0.2272,0.2281,0.2336,0.2349,0.2354,0.2304,0.2304,0.2305,0.2337,0,0.2397,0.2404,0.2384,0.2396,0.2396,0.237,0.2375,0.2365,0.2354,0.2353,0.234,0.234,0.2321,0.2318,0.2323,0.231,0.2326,0.2308,0.2308,0.2309,0.2313,0.2359,0.2372,0.2403,0.2341,0.2342,0.2342,0,0.2437,0.2431,0.2443,0.2425,0.2425,0.2429,0.2421,0.2421,0.2409,0.2401,0.2396,0.2379,0.2382,0.2362,0.2368,0.2356,0.2355,0.2348,0.2349,0.235,0.2328,0.2362,0.2413,0.2418,0.2348,0.2348,0.2347,0,0.2481,0.2475,0.2481,0.2477,0.2456,0.246,0.2452,0.2439,0.2437,0.2431,0.2429,0.2423,0.2421,0.2417,0.2399,0.2386,0.2406,0.2385,0.24,0.2401,0.2407,0.2407,0.246,0.2404,0.2404,0.2404,0.2404,0,0.2521,0.253,0.25,0.2504,0.2513,0.249,0.2499,0.2488,0.2477,0.2479,0.2456,0.2458,0.2434,0.2433,0.2419,0.2426,0.2425,0.2418,0.2415,0.2421,0.2422,0.2421,0.2419,0.2405,0.2405,0.2405,0.2404,0,0.2572,0.2553,0.2558,0.2537,0.2533,0.254,0.2523,0.2526,0.2512,0.2515,0.2514,0.2493,0.2491,0.2472,0.2467,0.2457,0.247,0.2462,0.2474,0.2472,0.2488,0.2487,0.2543,0.2549,0.2489,0.2489,0.249,0,0.26,0.2606,0.2586,0.2585,0.2577,0.2576,0.2573,0.255,0.2548,0.2535,0.254,0.2536,0.2532,0.2531,0.2515,0.2511,0.2503,0.2522,0.2502,0.2508,0.2504,0.2505,0.2506,0.2528,0.2528,0.2529,0.2529,0,0.2651,0.2641,0.2637,0.263,0.2627,0.262,0.2612,0.2613,0.2588,0.2587,0.2584,0.2581,0.2574,0.2571,0.2564,0.2556,0.2539,0.2536,0.2539,0.2546,0.2554,0.2551,0.2487,0.2535,0.2534,0.2534,0.2534,0.2533,0.2692,0.2696,0.2682,0.2679,0.267,0.2663,0.2665,0.2651,0.2648,0.2641,0.2627,0.2627,0.2615,0.2603,0.2596,0.2596,0.2586,0.2591,0.2592,0.2594,0.2598,0.2552,0.2594,0.2594,0.2594,0.2594,0.2594,0,0.2743,0.2733,0.273,0.2719,0.2716,0.2699,0.2689,0.2688,0.2688,0.2678,0.2673,0.2671,0.2667,0.2651,0.2646,0.2648,0.2641,0.2648,0.2648,0.2647,0.2607,0.2605,0.2654,0.2654,0.2654,0.2654,0.2654,0.2654,0.277,0.2775,0.2763,0.2764,0.2754,0.2753,0.2748,0.2742,0.2734,0.2731,0.2728,0.2717,0.2704,0.2698,0.2694,0.2689,0.2689,0.2699,0.2692,0.2655,0.265,0.2644,0.2642,0.2699,0.2699,0.2732,0.2733,0.2733]}]]